User: anonymous   Login
Location: Ammerl�gen
(47.2167°N, 9.6000°E)
Time: 04:16:37
(UTC+00:00)
Language:

Cosmos 1943 - Orbit

View from above orbital plane
View from above orbital plane
View from above satellite
View from above satellite

Ground track
Ground track

The orbit data is extracted from the following two-line orbital elements,

1 19119U 88039A   21169.59102632 -.00000214  00000-0 -85789-4 0  9996
2 19119  71.0043 270.4810 0012163 342.1872 111.2249 14.15177914708713
Epoch (UTC): 18 June 2021 14:11:04
Eccentricity: 0.0012163
inclination: 71.0043°
perigee height: 833 km
apogee height: 850 km
right ascension of ascending node: 270.4810°
argument of perigee: 342.1872°
revolutions per day: 14.15177914
mean anomaly at epoch: 111.2249°
orbit number at epoch: 70871

The dashed part of the orbit path shows where the satellite is in the earth's shadow,  

DLR